Location: Mauries
(43.6188°N, 0.3322°W)
Time: 17:48:17
(UTC+00:00)

CUBEBUG 2 - Visible Passes

Search period start: 17 May 2026 00:00
Search period end: 27 May 2026 00:00
Orbit: 546 x 628 km, 97.9° (Epoch: 17 May)

Date Brightness Start Highest point End Pass type
(mag) Time Alt. Az. Time Alt. Az. Time Alt. Az.
17 May ? 01:39:23 10° NE 01:42:26 21° E 01:43:39 19° ESE visible
17 May ? 03:14:29 10° N 03:17:55 29° WNW 03:20:09 17° WSW visible
18 May ? 01:46:15 10° NE 01:49:33 25° E 01:50:52 21° SE visible
18 May ? 03:21:41 10° NNW 03:24:56 25° WNW 03:27:21 14° WSW visible
19 May ? 01:53:09 10° NE 01:56:39 30° E 01:58:04 24° SE visible
19 May ? 03:28:56 10° NNW 03:31:57 21° WNW 03:34:33 12° WSW visible
20 May ? 02:00:05 10° NNE 02:03:45 36° E 02:05:16 26° SE visible
20 May ? 03:36:14 10° NNW 03:38:57 18° WNW 03:41:39 10° WSW visible
21 May ? 02:07:03 10° NNE 02:10:50 44° E 02:12:27 28° SSE visible
21 May ? 03:43:34 10° NNW 03:45:56 16° WNW 03:48:18 10° W visible
22 May ? 02:14:02 10° NNE 02:17:54 54° E 02:19:39 29° SSE visible
22 May ? 03:51:01 10° NW 03:52:55 13° WNW 03:54:50 10° W visible
23 May ? 02:21:02 10° NNE 02:24:58 66° ESE 02:26:49 29° S visible
24 May ? 02:28:03 10° NNE 02:32:01 80° ESE 02:34:00 28° S visible
25 May ? 02:35:06 10° NNE 02:39:03 85° WNW 02:41:11 27° SSW visible
26 May ? 02:42:08 10° N 02:46:05 70° WNW 02:48:21 24° SSW visible
